Regional Weather Roundup
Issued by NWS Northern Indiana

Home | Current Version | Previous Version | Graphics & Text | Print | Product List | Glossary On
Versions: 1 2 3 4 5 6 7 8 9 10 11 12 13 14 15 16 17 18 19 20 21 22 23 24 25 26 27 28 29 30 31 32 33 34 35 36 37 38 39 40 41 42 43 44 45 46 47 48 49 50
825
ASUS43 KIWX 250310
RWRIWX

KIWX WEATHER ROUNDUP
NATIONAL WEATHER SERVICE NORTHERN INDIANA
1000 PM EST SAT FEB 24 2018

NOTE: "FAIR" INDICATES FEW OR NO CLOUDS BELOW 12,000 FEET WITH NO
SIGNIFICANT WEATHER AND/OR OBSTRUCTIONS TO VISIBILITY.

* THESE STATIONS ARE NOT UNDER NWS QUALITY CONTROL. THEY ALSO MAY NOT
  REPORT WEATHER SUCH AS PRECIPITATION OR FOG.

INZ001>027-250400-
NORTHERN INDIANA

CITY           SKY/WX    TMP DP  RH WIND       PRES   REMARKS
GARY*          CLOUDY    46  43  87 SE18G36   29.61F
VALPARAISO     CLOUDY    46  43  89 SE17G26   29.62F
MICHIGAN CITY* CLOUDY    41  41 100 SE13G23   29.62F
LAPORTE*       CLOUDY    42  41  95 SE18G25   29.64F
SOUTH BEND     CLOUDY    39  37  92 SE25G36   29.67F
GOSHEN         LGT RAIN  39  37  92 E20G25    29.70F
MONTICELLO*    CLOUDY    48  47  96 SE8       29.61F
LOGANSPORT*    CLOUDY    46  45  93 SE22G28   29.64F
ROCHESTER*     CLOUDY    45  45 100 SE15G26   29.67F
WARSAW*        LGT RAIN  39  39 100 N17       29.70F
AUBURN*        LGT RAIN  36  36 100 E12G17    29.80F
FORT WAYNE     LGT RAIN  41  40  96 E15       29.79F FOG
HUNTINGTON*    LGT RAIN  41  40  96 E22       29.70F
PERU/GRISSOM   CLOUDY    48  48 100 E18G30    29.62F
MARION*        LGT RAIN  47  47 100 SE25      29.69F

$$
INZ028>050-250400-
CENTRAL INDIANA

CITY           SKY/WX    TMP DP  RH WIND       PRES   REMARKS
LAFAYETTE      CLOUDY    50  50 100 E13       29.59F
KOKOMO*        LGT RAIN  48  47  96 SE21      29.64F
MUNCIE*        RAIN      51  49  92 SE10      29.75F FOG
INDIANAPOLIS   LGT RAIN  51  51 100 SE18G33   29.67F

$$
MIZ043>046-050>051-056>058-064>065-071>073-077>080-250400-
SOUTHWEST LOWER MICHIGAN

CITY           SKY/WX    TMP DP  RH WIND       PRES   REMARKS
BATTLE CREEK   CLOUDY    38  33  82 SE15G28   29.76F
BENTON HARBOR  CLOUDY    41  35  79 SE21G29   29.65F
COLDWATER*     LGT SNOW  37  37 100 E15G22    29.75F
HILLSDALE*     LGT RAIN  34  32  93 E16G25    29.81F WCI  23
HOLLAND        CLOUDY    40  34  79 SE22G29   29.70F
GRAND RAPIDS   CLOUDY    38  33  82 E24G31    29.74F
KALAMAZOO      CLOUDY    40  34  79 SE16G28   29.74F
STURGIS*       CLOUDY    38  37  95 SE20      29.72F
THREE RIVERS*  CLOUDY    38  35  92 SE14G22   29.73F

$$
OHZ001>008-015>018-024>025-250400-
NORTHWEST OHIO

CITY           SKY/WX    TMP DP  RH WIND       PRES   REMARKS
WAUSEON*       LGT RAIN  37  37 100 E13G21    29.86F
DEFIANCE       LGT RAIN  37  34  89 E12       29.83F FOG
FINDLAY        RAIN      42  38  85 E7        29.84F FOG
TOLEDO EXPRESS RAIN      36  36 100 E12       29.87F FOG
TOLEDO METCALF LGT RAIN  37  34  89 E10       29.89F FOG
LIMA           RAIN      47  47 100 E10       29.81F FOG

$$
AND FOR LAKE MICHIGAN COASTAL AND OPEN LAKE BUOY OBSERVATIONS

STATION/POSITION TEMP    WIND        PRES    VSBY  WAVE
                 AIR SEA DIR/SP/G                  HT/PER
                 (F)     (DEG/KT/KT) (MB)    (MI)  (FT/S)
CALUMET HARBOR    44     130/ 16/ 21 1001.9F
MICHIGAN CITY     42     110/ 23/ 28   N/A
BURNS HARBOR      45     130/ 16/ 25 1003.4F
SAINT JOSEPH      41     140/  3/ 13 1003.7

$$
&&




USA.gov is the U.S. government's official web portal to all federal, state and local government web resources and services.